EHI
0 0 0 0 0 0 0 0 0 0 0 0 0 1 3 6 11 15 16 18 19 21 27 30 32 36 40 40 38 37 35 31 29 28 26 24 21 16 11 8 8 10 12 12
0 0 0 0 0 0 0 0 0 0 0 0 1 3 5 7 11 15 18 21 22 25 30 33 35 38 41 41 41 39 36 31 29 27 25 22 20 15 12 9 8 9 10 11
0 0 0 0 0 0 0 0 0 0 0 1 2 5 7 10 13 16 19 24 25 28 33 36 37 38 40 41 41 41 37 32 30 28 26 24 21 17 13 10 8 8 9 8
0 0 0 0 0 0 0 0 0 0 0 0 1 3 6 12 15 16 18 23 27 29 33 35 35 36 38 39 40 40 38 35 32 29 28 28 25 18 13 12 11 10 9 8
0 0 0 0 0 0 0 0 0 0 0 0 0 1 5 10 14 14 15 20 25 28 30 32 31 32 34 36 37 38 38 36 31 27 26 26 24 19 14 14 15 13 10 8
0 0 0 0 0 0 0 0 0 0 0 0 0 1 3 7 9 12 14 17 22 24 25 27 27 28 31 32 33 35 37 35 29 24 21 20 20 19 17 16 17 15 12 9
0 0 0 0 0 0 0 0 0 0 0 0 0 0 2 5 8 12 16 17 18 20 21 24 26 27 27 29 30 33 35 34 29 24 20 19 19 19 18 18 18 18 16 12
0 0 0 0 0 0 0 0 0 0 0 0 0 1 3 6 9 13 16 16 16 16 18 22 26 27 26 27 30 33 36 34 30 25 22 21 21 19 17 18 20 20 16 13
0 0 0 0 0 0 0 0 0 0 0 0 0 2 4 8 10 12 14 15 15 16 17 21 24 25 25 25 28 32 34 34 32 27 24 22 21 19 16 18 20 18 14 12
0 0 0 0 0 0 0 0 0 0 0 0 0 1 4 7 9 11 12 13 15 16 17 20 21 21 20 21 24 27 30 33 32 28 24 22 22 20 18 18 18 15 12 11
0 0 0 0 0 0 0 0 0 0 0 0 0 0 2 5 8 10 11 11 13 15 17 19 19 17 16 18 20 22 26 29 29 25 21 20 21 20 18 17 15 11 9 9
0 0 0 0 0 0 0 0 0 0 0 0 0 0 1 3 6 9 11 10 10 13 16 18 18 17 16 16 18 20 23 24 24 22 19 18 18 17 15 14 11 7 6 6
0 0 0 0 0 0 0 0 0 0 0 0 0 0 0 1 4 6 8 8 9 12 16 19 20 20 19 17 17 18 18 18 18 19 19 18 17 14 11 9 8 6 5 4
0 0 0 0 0 0 0 0 0 0 0 0 0 0 1 2 3 4 5 7 9 12 16 21 23 22 20 18 16 15 15 15 15 17 18 17 15 11 8 8 7 6 5 4
0 0 0 0 0 0 0 0 0 0 0 0 0 0 1 3 5 5 5 7 9 11 16 21 22 21 20 18 13 11 12 13 15 16 17 16 13 8 6 6 7 6 4 2
0 0 0 0 0 0 0 0 0 0 0 0 0 0 1 3 6 7 7 10 12 13 16 20 21 22 21 17 12 9 9 11 13 15 15 14 11 7 5 5 6 5 2 1
0 0 0 0 0 0 0 0 0 0 0 0 0 0 1 4 7 8 10 11 14 17 18 20 21 21 19 14 11 9 7 8 10 13 13 12 9 6 5 5 6 6 3 1
0 0 0 0 0 0 0 0 0 0 0 0 0 1 4 7 9 10 10 11 14 17 19 18 17 16 15 12 11 10 8 7 8 10 11 10 8 5 4 4 5 6 6 4
0 0 0 0 0 0 0 0 0 0 0 0 1 4 7 10 10 10 10 11 12 15 16 15 13 12 13 13 12 12 10 8 8 9 10 9 7 4 3 3 4 6 6 4
0 0 0 0 0 0 0 0 0 0 0 1 2 5 8 8 7 7 9 12 12 13 13 13 12 13 13 13 12 11 9 8 9 11 9 7 5 4 3 4 6 7 5 4
0 0 0 0 0 0 0 0 0 0 0 1 3 6 7 6 5 7 10 12 13 12 12 13 13 13 11 10 10 9 8 9 11 12 9 6 3 3 3 4 5 6 5 4
0 0 0 0 0 0 0 0 0 0 1 3 6 8 8 7 7 10 12 13 13 13 14 15 14 12 10 8 8 8 7 8 10 10 8 5 4 4 4 4 5 6 6 4
0 0 0 0 0 0 0 1 0 0 2 4 7 8 8 7 8 10 11 12 12 13 13 15 15 12 10 9 8 7 6 6 6 6 6 4 4 4 5 5 5 5 5 4
0 0 0 0 0 0 0 0 0 0 1 2 4 6 7 7 7 7 8 9 9 9 8 9 12 12 11 10 9 7 6 5 5 5 4 4 4 5 5 5 5 6 5 4
0 0 0 0 0 0 0 0 1 1 1 1 2 4 6 6 5 4 4 4 5 5 4 5 7 10 11 11 10 7 6 6 6 6 5 4 4 5 4 3 4 5 5 4
0 0 0 0 0 0 0 1 2 2 2 2 3 4 5 4 3 3 3 2 2 3 3 4 6 9 12 13 10 8 6 6 7 7 6 5 5 4 4 3 2 2 3 4
Wind_Speed
2 2 5 9 9 8 5 5 8 10 8 2 4 5 6 6 7 8 8 9 9 9 8 10 10 10 10 8 8 8 8 6 5 4 4 3 2 2 1 2 3 3 3 4
2 6 13 9 7 6 7 7 9 9 6 2 3 2 2 5 8 10 11 10 10 7 6 8 9 9 10 10 8 7 8 7 5 4 3 3 3 2 2 1 2 2 3 3
8 11 8 7 8 8 8 7 7 6 6 3 3 3 2 1 2 4 6 8 9 10 10 9 9 8 8 9 10 9 8 7 7 6 4 3 2 2 1 1 1 1 3 3
7 9 7 6 8 7 8 8 5 3 1 4 2 2 5 2 1 1 4 6 8 9 8 9 9 8 8 8 7 7 7 6 6 6 6 6 4 3 3 3 2 2 2 3
7 5 5 6 8 6 7 5 2 2 1 2 2 3 5 1 1 3 4 5 7 8 9 9 9 9 9 7 6 6 7 6 6 5 6 5 4 3 2 2 2 2 2 2
8 6 5 7 6 3 2 3 5 4 5 1 4 2 3 3 4 4 3 4 6 7 8 7 6 6 5 6 6 6 6 5 6 6 6 5 5 4 4 3 3 2 1 1
6 7 5 2 2 4 3 5 4 6 5 4 3 2 4 5 3 5 5 5 5 4 6 7 7 7 7 7 7 7 7 6 5 6 6 5 5 5 5 5 4 3 2 2
2 6 4 2 4 3 2 7 7 4 4 5 3 1 4 3 1 4 5 5 5 5 6 7 8 8 7 7 8 7 7 6 6 6 5 5 5 4 3 3 3 4 3 3
2 5 5 3 1 4 1 1 7 7 2 0 2 1 2 2 3 3 3 4 4 5 5 6 6 7 7 7 7 8 8 6 5 5 5 4 4 4 4 3 3 3 2 3
3 2 6 5 5 4 3 4 5 5 3 2 2 2 3 2 0 1 2 4 3 3 4 5 5 5 6 5 5 5 6 6 5 5 4 4 3 3 3 4 4 3 2 2
2 2 5 4 2 2 4 3 4 3 5 5 2 5 4 5 3 3 3 3 4 4 4 4 4 3 4 5 5 5 5 5 4 4 4 3 3 3 3 3 3 3 2 2
1 4 1 4 5 1 3 2 4 3 3 4 4 5 2 3 2 3 2 3 4 4 4 5 5 4 4 4 4 4 4 4 4 4 4 4 3 3 3 3 3 3 3 3
2 5 3 7 8 6 3 2 1 3 3 3 4 5 1 2 2 2 3 3 3 4 4 4 4 5 5 4 3 3 3 4 4 5 5 4 3 3 3 3 3 3 3 2
3 4 5 5 6 3 3 4 3 3 2 2 4 4 2 1 1 1 2 2 3 3 4 4 4 5 4 5 5 3 2 3 4 4 4 4 3 3 3 3 2 2 3 2
5 2 1 3 3 2 3 4 3 1 3 4 4 4 5 5 5 4 3 3 3 3 4 5 5 4 5 4 4 4 3 3 4 4 4 3 3 3 2 2 2 2 2 2
4 1 1 3 3 3 4 5 3 1 1 2 2 2 3 3 1 2 3 4 5 4 4 5 5 5 5 5 5 4 3 3 4 4 4 3 3 3 3 2 2 2 2 2
1 2 2 3 3 3 4 4 1 1 1 2 2 4 1 0 1 3 3 4 5 5 5 5 5 6 6 6 6 5 4 3 4 4 3 3 3 2 2 3 2 2 2 2
4 3 2 1 1 2 4 2 3 4 4 3 2 1 1 2 2 2 3 4 5 5 6 5 5 5 4 4 4 4 3 3 3 3 3 3 3 2 2 2 2 2 2 2
5 5 3 2 1 3 3 3 2 1 2 3 3 3 2 1 3 3 1 2 4 5 5 5 4 4 4 4 4 5 4 4 3 3 3 3 3 3 3 3 3 2 2 2
4 5 4 2 2 3 4 4 2 4 1 3 3 2 1 1 1 4 4 2 2 3 3 4 4 4 4 3 4 4 4 4 4 3 3 3 2 3 3 4 3 2 2 2
3 3 2 2 2 3 4 6 3 1 5 4 2 1 1 2 5 5 3 1 2 3 3 4 5 4 4 4 4 4 4 3 4 3 2 2 2 2 3 3 2 2 2 2
2 1 1 2 2 5 4 3 1 4 4 2 2 1 1 1 1 2 1 1 2 3 3 4 4 3 3 4 5 4 3 3 3 3 2 2 2 2 2 2 2 2 2 2
1 4 4 4 5 6 3 2 3 2 1 2 1 2 1 1 1 1 0 0 1 2 3 3 3 2 2 3 4 4 3 2 2 3 2 2 2 2 2 3 3 2 2 2
2 1 2 0 3 3 1 0 0 1 1 2 2 2 0 1 2 2 1 1 0 1 2 2 3 2 2 2 3 3 3 3 3 3 2 2 2 1 1 1 2 2 2 2
3 1 1 1 3 3 3 2 2 2 2 2 2 2 1 1 2 2 3 2 2 1 1 2 3 3 3 2 3 3 3 3 3 3 2 2 2 2 1 1 1 2 2 3
3 3 3 4 5 3 4 4 2 2 2 2 2 3 3 1 2 2 2 2 2 2 1 2 2 3 3 3 2 2 2 3 4 3 3 2 2 2 2 2 1 3 1 1
Wind_Direction
230 128 236 234 214 214 237 258 269 269 264 234 213 221 216 187 163 165 171 172 173 175 172 160 157 155 149 150 149 150 146 148 143 137 138 136 138 147 141 145 149 148 146 143
358 250 238 239 242 234 242 259 272 283 280 205 206 244 225 168 173 172 167 168 168 156 150 154 157 159 159 157 153 150 152 152 158 159 155 151 145 151 160 154 143 147 147 150
214 242 244 235 249 250 257 235 246 267 307 353 89 355 321 318 112 151 162 163 160 161 163 160 157 161 157 162 164 162 165 160 162 154 133 119 96 83 105 136 158 173 157 151
241 250 253 248 246 228 252 249 239 268 326 290 118 222 285 264 66 137 172 160 160 162 159 161 161 161 164 172 167 159 157 156 157 151 148 151 158 172 189 180 176 174 159 157
257 258 254 252 245 220 232 248 236 263 197 325 355 140 276 320 209 227 200 170 158 161 160 163 169 173 166 161 160 161 154 156 156 150 154 161 167 175 170 163 159 170 166 167
253 262 233 233 251 225 218 16 12 35 66 343 274 151 272 260 219 204 192 169 160 165 166 163 164 155 150 149 157 157 152 159 160 154 160 170 164 161 160 169 173 183 185 181
298 298 287 259 295 325 68 81 27 359 9 266 288 107 241 252 219 175 169 173 165 156 158 156 153 155 157 163 163 160 160 164 167 162 168 171 167 163 170 176 178 174 177 188
247 289 288 280 204 208 195 135 153 190 225 274 339 183 252 267 215 151 149 156 151 155 162 158 161 163 164 167 161 161 167 171 176 172 173 164 161 162 171 176 173 178 183 190
192 266 292 298 259 146 133 167 169 144 183 250 285 276 303 355 41 72 99 121 150 162 160 159 157 158 160 163 167 169 167 165 173 175 170 162 162 163 166 166 159 167 180 180
157 273 300 317 20 14 136 146 84 102 146 244 276 243 231 257 265 74 124 144 159 162 155 151 149 159 158 157 151 153 159 168 172 165 168 163 162 162 162 153 156 160 164 163
108 123 319 5 32 317 12 40 89 117 151 158 211 262 225 200 197 168 165 158 147 140 146 139 138 150 147 139 139 144 150 150 152 152 149 144 146 141 140 151 159 156 160 158
71 117 288 283 280 219 135 131 124 144 232 171 166 254 271 174 139 124 127 129 137 140 144 135 133 126 121 126 132 133 142 150 153 150 142 144 138 132 136 151 163 160 169 180
57 94 31 341 343 359 30 26 82 137 135 165 169 237 264 122 108 140 150 139 138 137 133 130 128 130 133 134 132 136 143 145 142 144 143 141 144 145 154 167 166 165 172 183
96 106 154 200 237 274 314 329 354 87 143 216 211 215 260 251 179 180 151 141 147 150 141 133 134 141 144 138 136 147 146 149 147 143 145 149 159 166 176 173 166 171 172 170
79 94 197 240 263 331 337 339 343 352 213 196 212 201 228 221 201 183 155 131 132 139 139 148 155 156 149 142 142 152 164 172 158 145 148 159 164 165 158 174 175 169 162 165
62 99 10 323 314 342 338 329 313 301 218 174 158 244 250 229 156 134 152 142 144 152 160 162 160 154 151 154 155 159 173 173 153 148 159 159 158 161 162 178 167 157 154 155
75 109 77 276 300 14 322 314 344 32 356 162 200 239 283 357 187 192 182 157 160 163 171 171 169 166 168 168 164 170 175 166 158 159 158 158 158 168 181 185 169 175 188 172
159 134 141 225 17 224 246 335 77 82 39 38 29 288 194 200 208 183 170 159 167 174 175 179 171 166 168 167 162 154 143 149 156 154 157 165 176 186 186 179 187 198 191 184
156 147 136 137 193 258 309 336 337 145 341 3 2 355 19 99 49 347 271 177 169 179 176 175 168 159 157 160 158 141 143 153 155 163 173 187 190 181 182 186 196 200 181 190
66 100 119 131 168 228 255 301 320 102 287 334 348 334 338 56 109 255 251 219 152 139 144 141 133 129 141 153 145 145 154 157 172 181 187 191 181 178 187 190 188 190 181 196
20 46 109 152 203 256 273 310 8 129 246 286 291 273 263 224 230 244 233 192 147 135 142 136 134 148 166 153 144 158 167 186 191 176 167 169 174 175 180 180 167 164 172 165
169 135 153 138 183 253 287 6 128 223 245 268 290 266 239 243 274 267 210 155 146 135 140 140 143 158 168 159 156 164 192 204 179 160 154 169 188 189 174 165 164 160 156 160
161 176 178 185 214 241 245 197 211 195 240 274 301 291 193 200 235 224 93 100 144 140 142 139 140 138 139 156 157 163 196 182 156 146 147 167 182 183 157 161 163 151 152 163
306 111 121 228 270 283 288 134 228 229 233 268 278 290 265 224 214 174 140 131 108 143 154 133 129 136 141 146 151 169 176 159 153 157 158 160 154 157 140 145 151 146 158 173
258 2 66 259 285 326 332 314 301 319 328 346 339 331 278 223 223 186 163 168 178 177 173 150 161 167 176 167 166 172 162 147 148 156 158 160 158 161 140 114 117 154 180 193
240 187 177 228 239 216 265 287 320 349 321 311 327 340 331 269 199 168 162 172 166 171 172 162 177 174 176 168 171 175 162 154 156 161 161 160 158 155 148 135 59 23 24 234